2021/08/02 23:29:55+0000,-42.49,-47.82,-29.31,-46.23,-53.27,-55.88
2021/08/02 23:30:47+0000,-44.17,-48.18,-29.78,-46.64,-53.13,-55.42
2021/08/02 23:31:49+0000,-42.85,-48.60,-30.06,-46.70,-53.01,-55.39
2021/08/02 23:32:41+0000,-43.25,-49.01,-30.14,-46.55,-52.38,-55.70
2021/08/02 23:33:33+0000,-42.22,-48.22,-30.24,-46.88,-52.54,-55.30
2021/08/02 23:34:25+0000,-42.86,-49.59,-29.97,-47.39,-53.04,-55.64
2021/08/02 23:35:17+0000,-42.34,-49.51,-29.64,-47.14,-52.86,-55.04
2021/08/02 23:36:09+0000,-42.96,-48.40,-29.81,-46.15,-53.05,-55.52
2021/08/02 23:37:01+0000,-41.33,-48.13,-29.82,-46.32,-53.35,-55.00
2021/08/02 23:37:53+0000,-41.93,-48.66,-29.14,-46.27,-52.98,-55.72
2021/08/02 23:38:45+0000,-43.06,-48.95,-29.35,-46.81,-52.78,-55.87
2021/08/02 23:39:37+0000,-42.40,-47.90,-29.68,-46.95,-53.47,-56.34
2021/08/02 23:40:29+0000,-42.40,-48.65,-29.59,-46.63,-52.85,-55.30
2021/08/02 23:41:30+0000,-43.18,-50.91,-29.87,-47.49,-52.54,-56.22
2021/08/02 23:42:22+0000,-42.70,-51.12,-29.49,-46.82,-53.16,-55.70
2021/08/02 23:43:14+0000,-42.52,-50.84,-29.26,-47.65,-52.94,-55.95
2021/08/02 23:44:06+0000,-40.74,-51.49,-29.56,-46.76,-53.82,-55.72
2021/08/02 23:44:58+0000,-42.18,-50.68,-29.98,-47.01,-53.30,-55.84
2021/08/02 23:45:50+0000,-41.27,-50.77,-29.33,-47.19,-53.54,-55.95
2021/08/02 23:46:42+0000,-42.67,-51.33,-29.72,-47.09,-53.70,-55.68
2021/08/02 23:47:34+0000,-42.61,-50.72,-29.93,-47.36,-52.64,-56.21
2021/08/02 23:48:26+0000,-43.04,-50.89,-30.16,-47.03,-52.63,-55.95
2021/08/02 23:49:18+0000,-40.88,-50.95,-30.00,-47.89,-53.38,-56.01
2021/08/02 23:50:10+0000,-41.22,-51.18,-30.00,-46.88,-53.57,-56.33
2021/08/02 23:51:11+0000,-42.92,-50.37,-29.94,-46.82,-52.94,-55.69
2021/08/02 23:52:03+0000,-42.79,-51.18,-29.71,-47.79,-53.64,-56.24
2021/08/02 23:52:55+0000,-42.33,-51.54,-29.70,-47.10,-53.47,-56.18
2021/08/02 23:53:47+0000,-42.98,-50.77,-30.07,-46.83,-53.19,-55.57
2021/08/02 23:54:39+0000,-42.29,-51.21,-29.73,-46.61,-52.41,-55.86
2021/08/02 23:55:31+0000,-41.97,-50.76,-29.83,-47.01,-53.05,-56.22
2021/08/02 23:56:23+0000,-42.51,-50.84,-30.87,-47.32,-53.12,-55.68
2021/08/02 23:57:15+0000,-42.44,-50.85,-30.15,-48.10,-52.91,-56.19
2021/08/02 23:58:07+0000,-43.51,-51.72,-29.77,-46.66,-53.47,-56.29
2021/08/02 23:58:59+0000,-43.69,-51.15,-30.46,-47.34,-53.39,-55.78
2021/08/02 23:59:51+0000,-42.37,-50.77,-29.85,-47.02,-53.24,-55.92
2021/08/03 00:00:48+0000,-42.78,-51.02,-29.96,-47.57,-53.25,-55.15
2021/08/03 00:01:50+0000,-42.63,-48.79,-29.68,-47.02,-53.47,-56.48
2021/08/03 00:02:42+0000,-43.55,-48.79,-29.88,-46.62,-53.22,-54.64
2021/08/03 00:03:34+0000,-42.73,-48.18,-29.95,-47.11,-52.56,-55.69
2021/08/03 00:04:26+0000,-43.24,-49.41,-29.80,-46.63,-53.41,-55.81
2021/08/03 00:05:18+0000,-43.60,-48.64,-29.86,-47.13,-52.94,-55.61
2021/08/03 00:06:11+0000,-41.81,-48.24,-29.26,-46.66,-53.56,-55.54
2021/08/03 00:07:03+0000,-43.02,-48.53,-29.83,-47.79,-53.49,-56.03
2021/08/03 00:07:55+0000,-43.12,-48.22,-29.29,-47.44,-52.86,-55.93
2021/08/03 00:08:47+0000,-42.95,-48.47,-29.68,-47.24,-53.37,-56.41
2021/08/03 00:09:39+0000,-43.56,-49.18,-29.35,-47.31,-53.29,-55.80
2021/08/03 00:10:31+0000,-42.03,-48.89,-30.20,-47.99,-54.05,-55.84
2021/08/03 00:11:31+0000,-42.22,-48.71,-30.03,-47.06,-53.64,-56.07
2021/08/03 00:12:23+0000,-42.81,-48.10,-29.81,-46.72,-53.69,-55.94
2021/08/03 00:13:15+0000,-42.85,-48.23,-29.80,-47.43,-52.96,-56.19
2021/08/03 00:14:07+0000,-42.50,-48.36,-29.55,-47.85,-53.52,-55.89
2021/08/03 00:14:59+0000,-42.03,-48.13,-29.58,-46.45,-52.91,-55.78
2021/08/03 00:15:51+0000,-41.82,-47.80,-29.35,-47.27,-53.54,-55.49
2021/08/03 00:16:43+0000,-40.02,-48.11,-29.60,-46.87,-53.31,-55.94
2021/08/03 00:17:36+0000,-41.23,-48.19,-29.84,-46.77,-53.86,-55.92
2021/08/03 00:18:28+0000,-40.62,-48.62,-29.40,-47.55,-52.75,-56.04
2021/08/03 00:19:20+0000,-41.48,-49.23,-29.08,-47.39,-52.95,-55.92
2021/08/03 00:20:12+0000,-41.44,-49.45,-29.49,-47.59,-53.13,-55.73
2021/08/03 00:21:12+0000,-40.89,-48.81,-29.29,-46.55,-53.38,-55.70
2021/08/03 00:22:04+0000,-42.17,-50.48,-29.59,-47.74,-53.80,-56.16
2021/08/03 00:22:56+0000,-41.98,-51.17,-29.88,-47.35,-53.53,-55.85
2021/08/03 00:23:48+0000,-41.55,-51.22,-29.46,-47.34,-52.82,-56.36
2021/08/03 00:24:40+0000,-41.39,-50.11,-29.38,-47.82,-53.52,-55.47
2021/08/03 00:25:32+0000,-41.48,-51.02,-29.77,-47.44,-53.58,-56.44
2021/08/03 00:26:24+0000,-42.43,-51.30,-30.17,-46.99,-53.04,-57.37
2021/08/03 00:27:16+0000,-40.98,-50.92,-29.78,-47.91,-53.67,-56.80
2021/08/03 00:28:08+0000,-41.83,-50.82,-29.29,-45.81,-53.04,-56.44
2021/08/03 00:29:00+0000,-41.29,-51.85,-29.50,-47.08,-53.31,-55.84
2021/08/03 00:29:52+0000,-41.98,-51.52,-29.54,-47.48,-54.04,-55.62
2021/08/03 00:30:44+0000,-42.63,-50.55,-29.33,-44.99,-53.77,-55.92
2021/08/03 00:31:44+0000,-42.58,-51.13,-29.63,-44.83,-53.21,-56.45
2021/08/03 00:32:36+0000,-41.51,-50.99,-29.66,-44.66,-53.76,-55.96
2021/08/03 00:33:28+0000,-42.17,-50.96,-29.56,-46.34,-54.11,-56.49
2021/08/03 00:34:20+0000,-41.60,-51.32,-29.81,-47.68,-53.46,-55.78
2021/08/03 00:35:13+0000,-41.61,-50.95,-29.28,-45.50,-53.23,-56.22
2021/08/03 00:36:05+0000,-42.20,-51.50,-29.95,-47.81,-53.92,-56.63
2021/08/03 00:36:57+0000,-41.96,-51.03,-29.71,-47.34,-53.06,-56.17
2021/08/03 00:37:49+0000,-41.41,-50.11,-28.96,-47.44,-52.91,-56.71
2021/08/03 00:38:41+0000,-43.22,-51.01,-29.37,-45.69,-53.53,-56.58
2021/08/03 00:39:33+0000,-42.35,-50.95,-29.82,-47.06,-52.73,-56.25
2021/08/03 00:40:25+0000,-41.46,-50.97,-29.65,-47.01,-53.62,-55.98
2021/08/03 00:41:25+0000,-41.42,-49.95,-29.35,-46.96,-53.17,-56.80
2021/08/03 00:42:18+0000,-41.17,-50.54,-30.16,-47.22,-54.17,-56.33
2021/08/03 00:43:10+0000,-41.23,-50.97,-29.96,-45.41,-53.27,-56.07
2021/08/03 00:44:02+0000,-41.33,-50.49,-29.84,-46.55,-53.26,-56.62
2021/08/03 00:44:54+0000,-41.83,-50.51,-28.99,-46.72,-53.76,-55.69
2021/08/03 00:45:46+0000,-42.38,-50.64,-29.91,-44.87,-53.30,-55.97
2021/08/03 00:46:38+0000,-41.78,-50.38,-29.87,-44.82,-53.25,-56.64
2021/08/03 00:47:30+0000,-42.15,-50.68,-29.43,-47.52,-53.22,-56.85
2021/08/03 00:48:22+0000,-42.03,-50.63,-29.03,-48.15,-53.53,-56.39
2021/08/03 00:49:14+0000,-42.31,-50.93,-29.11,-45.81,-52.93,-56.23
2021/08/03 00:50:06+0000,-41.53,-50.67,-29.45,-48.13,-53.40,-56.56
2021/08/03 00:51:04+0000,-41.96,-50.57,-29.06,-47.69,-53.62,-56.22
2021/08/03 00:51:56+0000,-41.48,-50.47,-28.83,-47.40,-53.72,-56.04
2021/08/03 00:52:48+0000,-41.67,-51.08,-29.94,-45.39,-53.19,-56.45
2021/08/03 00:53:40+0000,-41.69,-51.44,-29.10,-45.02,-53.34,-56.43
2021/08/03 00:54:32+0000,-42.06,-51.30,-29.15,-46.21,-53.43,-56.29
2021/08/03 00:55:24+0000,-41.50,-51.51,-29.68,-47.53,-53.60,-56.48
2021/08/03 00:56:16+0000,-40.94,-50.97,-29.60,-47.79,-53.25,-56.11
2021/08/03 00:57:08+0000,-41.50,-51.21,-29.56,-44.72,-52.90,-56.33
2021/08/03 00:58:00+0000,-41.68,-51.45,-29.82,-47.04,-53.53,-56.96
2021/08/03 00:58:52+0000,-41.69,-50.88,-29.70,-48.20,-53.24,-57.23
2021/08/03 00:59:44+0000,-41.97,-51.57,-29.63,-44.68,-53.04,-56.52
2021/08/03 01:00:36+0000,-41.58,-50.88,-29.84,-48.57,-53.10,-56.47
2021/08/03 01:01:37+0000,-41.50,-51.17,-29.89,-48.48,-53.39,-56.87
2021/08/03 01:02:29+0000,-40.87,-51.07,-29.90,-47.36,-53.01,-56.82
2021/08/03 01:03:21+0000,-42.22,-51.38,-29.04,-47.31,-52.37,-56.50
2021/08/03 01:04:13+0000,-41.31,-50.89,-29.69,-45.41,-52.92,-56.80
2021/08/03 01:05:05+0000,-42.42,-51.25,-29.14,-45.86,-53.20,-56.87
2021/08/03 01:05:57+0000,-41.68,-50.65,-29.85,-47.97,-52.97,-55.71
2021/08/03 01:06:49+0000,-41.50,-50.22,-29.76,-48.49,-53.43,-56.42
2021/08/03 01:07:41+0000,-41.65,-50.95,-29.94,-45.09,-52.66,-56.17
2021/08/03 01:08:33+0000,-41.16,-50.01,-29.94,-47.09,-52.73,-56.24
2021/08/03 01:09:25+0000,-41.70,-50.77,-29.77,-47.62,-52.56,-56.13
2021/08/03 01:10:17+0000,-41.51,-50.11,-29.21,-47.42,-52.44,-56.19
2021/08/03 01:11:18+0000,-42.39,-50.11,-29.72,-47.64,-52.12,-56.14
2021/08/03 01:12:10+0000,-41.60,-50.81,-29.81,-45.70,-52.48,-55.40
2021/08/03 01:13:02+0000,-42.17,-50.58,-29.57,-47.18,-52.63,-56.29
2021/08/03 01:13:54+0000,-41.88,-51.13,-29.38,-47.25,-52.51,-55.47
2021/08/03 01:14:46+0000,-42.12,-50.12,-29.55,-44.11,-52.64,-55.89
2021/08/03 01:15:38+0000,-41.73,-50.26,-29.31,-44.25,-51.76,-55.58
2021/08/03 01:16:30+0000,-41.31,-49.93,-29.27,-47.58,-52.10,-56.08
2021/08/03 01:17:22+0000,-41.63,-50.25,-29.57,-47.21,-52.63,-56.13
2021/08/03 01:18:14+0000,-41.77,-49.84,-29.48,-44.99,-52.75,-56.26
2021/08/03 01:19:06+0000,-41.97,-50.69,-29.42,-45.57,-52.59,-56.05
2021/08/03 01:19:58+0000,-41.97,-50.81,-29.98,-46.47,-52.05,-55.88
2021/08/03 01:20:50+0000,-42.10,-50.58,-29.65,-47.32,-52.50,-56.28
2021/08/03 01:21:50+0000,-42.64,-50.51,-29.73,-48.21,-52.71,-56.15
2021/08/03 01:22:42+0000,-42.42,-49.76,-29.12,-45.21,-52.39,-56.30
2021/08/03 01:23:34+0000,-42.20,-50.74,-29.93,-47.81,-52.73,-55.72
2021/08/03 01:24:26+0000,-42.43,-49.81,-29.18,-47.29,-52.63,-56.15
2021/08/03 01:25:18+0000,-40.80,-50.51,-29.97,-47.56,-52.17,-56.04
2021/08/03 01:26:10+0000,-42.29,-50.31,-29.60,-44.65,-52.44,-55.66
2021/08/03 01:27:02+0000,-42.39,-50.14,-29.12,-46.98,-52.40,-56.19
2021/08/03 01:27:54+0000,-43.07,-50.49,-29.45,-46.87,-52.73,-55.62
2021/08/03 01:28:46+0000,-41.86,-50.16,-30.11,-44.52,-52.59,-55.89
2021/08/03 01:29:38+0000,-41.36,-49.79,-29.58,-44.50,-52.23,-55.78
2021/08/03 01:30:31+0000,-42.44,-49.19,-30.21,-47.57,-53.41,-56.04
2021/08/03 01:31:30+0000,-42.71,-49.59,-30.10,-47.88,-52.10,-55.28
2021/08/03 01:32:22+0000,-40.49,-51.11,-30.21,-47.13,-52.48,-56.27
2021/08/03 01:33:14+0000,-41.98,-49.94,-30.03,-44.44,-52.77,-56.00
2021/08/03 01:34:06+0000,-41.20,-50.88,-30.21,-45.62,-52.21,-55.49
2021/08/03 01:34:58+0000,-41.23,-49.99,-29.02,-47.02,-51.78,-56.35
2021/08/03 01:35:51+0000,-43.55,-49.81,-29.73,-47.85,-52.50,-56.37
2021/08/03 01:36:43+0000,-41.44,-49.82,-30.82,-47.72,-52.47,-55.65
2021/08/03 01:37:35+0000,-42.16,-49.92,-30.74,-48.24,-52.21,-55.91
2021/08/03 01:38:27+0000,-43.32,-49.99,-29.98,-46.87,-53.11,-55.88
2021/08/03 01:39:19+0000,-43.40,-49.17,-30.42,-47.58,-52.53,-55.98
2021/08/03 01:40:11+0000,-43.51,-49.14,-30.05,-48.21,-52.65,-55.93
2021/08/03 01:41:11+0000,-42.28,-49.46,-29.97,-47.43,-53.01,-56.32
2021/08/03 01:42:03+0000,-43.92,-50.62,-29.86,-47.42,-52.75,-56.29
2021/08/03 01:42:55+0000,-41.91,-49.64,-30.29,-47.49,-52.48,-56.79
2021/08/03 01:43:47+0000,-42.61,-48.80,-30.13,-47.47,-52.56,-55.88
2021/08/03 01:44:39+0000,-43.17,-49.92,-30.40,-47.37,-52.80,-56.34
2021/08/03 01:45:31+0000,-42.53,-49.30,-30.41,-47.11,-52.94,-56.33
2021/08/03 01:46:23+0000,-41.55,-50.45,-30.09,-46.89,-52.42,-56.66
2021/08/03 01:47:15+0000,-40.80,-49.40,-30.61,-47.47,-52.30,-56.26
2021/08/03 01:48:07+0000,-43.40,-50.14,-30.56,-47.16,-52.77,-56.02
2021/08/03 01:48:59+0000,-42.00,-47.48,-30.49,-46.53,-52.04,-56.07
2021/08/03 01:49:52+0000,-41.35,-46.87,-30.49,-45.32,-52.59,-55.69
2021/08/03 01:50:44+0000,-38.72,-47.11,-29.99,-46.64,-52.65,-55.75
2021/08/03 01:51:43+0000,-42.83,-47.61,-29.86,-47.49,-52.33,-56.59
2021/08/03 01:52:35+0000,-42.23,-45.55,-29.99,-46.58,-52.29,-56.09
2021/08/03 01:53:27+0000,-40.60,-47.19,-30.19,-45.95,-52.67,-56.17
2021/08/03 01:54:19+0000,-41.74,-47.03,-30.85,-47.24,-52.89,-56.27
2021/08/03 01:55:11+0000,-42.16,-46.57,-30.53,-46.96,-52.88,-56.20
2021/08/03 01:56:03+0000,-41.93,-47.07,-30.50,-46.61,-52.56,-55.96
2021/08/03 01:56:55+0000,-42.47,-46.61,-29.41,-46.50,-52.84,-55.48
2021/08/03 01:57:47+0000,-41.96,-46.45,-29.87,-47.18,-52.36,-55.71
2021/08/03 01:58:39+0000,-43.26,-46.74,-30.02,-46.53,-52.69,-56.10
2021/08/03 01:59:32+0000,-42.30,-47.03,-30.24,-47.08,-53.65,-56.10
2021/08/03 02:00:24+0000,-42.03,-47.41,-30.35,-46.30,-52.26,-55.31
2021/08/03 02:01:25+0000,-43.10,-46.68,-30.21,-46.54,-52.64,-56.44
2021/08/03 02:02:17+0000,-42.32,-46.80,-29.55,-45.71,-52.60,-56.23
2021/08/03 02:03:09+0000,-42.71,-47.40,-30.00,-46.65,-53.02,-55.65
2021/08/03 02:04:01+0000,-42.44,-47.07,-29.87,-47.16,-52.57,-55.87
2021/08/03 02:04:53+0000,-42.71,-46.60,-29.74,-46.10,-52.80,-56.37
2021/08/03 02:05:45+0000,-43.35,-46.85,-30.50,-44.77,-52.66,-55.79
2021/08/03 02:06:37+0000,-43.03,-47.91,-30.20,-45.53,-52.90,-55.67
2021/08/03 02:07:29+0000,-42.56,-47.87,-29.75,-44.99,-52.59,-55.65
2021/08/03 02:08:21+0000,-42.87,-49.63,-30.30,-46.60,-53.33,-56.38
2021/08/03 02:09:13+0000,-42.16,-49.15,-29.79,-46.14,-52.52,-56.59
2021/08/03 02:10:05+0000,-41.79,-50.17,-29.13,-46.27,-53.10,-56.20
2021/08/03 02:11:06+0000,-42.31,-49.39,-30.33,-47.31,-52.84,-55.77
2021/08/03 02:11:58+0000,-42.95,-46.99,-30.22,-46.14,-52.56,-56.46
2021/08/03 02:12:50+0000,-42.62,-49.61,-30.98,-46.52,-51.94,-55.81
2021/08/03 02:13:42+0000,-43.33,-49.33,-30.62,-46.57,-53.01,-56.06
2021/08/03 02:14:34+0000,-43.73,-48.80,-30.53,-47.18,-52.84,-56.82
2021/08/03 02:15:26+0000,-43.05,-48.45,-30.43,-45.52,-52.95,-56.41
2021/08/03 02:16:18+0000,-43.25,-48.64,-29.92,-46.98,-52.52,-55.96
2021/08/03 02:17:10+0000,-42.92,-48.23,-30.84,-46.85,-52.48,-55.79
2021/08/03 02:18:02+0000,-43.14,-48.44,-30.42,-46.13,-52.47,-56.15
2021/08/03 02:18:54+0000,-42.28,-48.34,-30.52,-45.97,-52.72,-55.80
2021/08/03 02:19:46+0000,-41.47,-47.42,-31.04,-46.42,-52.46,-56.20
2021/08/03 02:20:38+0000,-42.48,-46.90,-30.88,-46.42,-52.71,-55.67
2021/08/03 02:21:38+0000,-42.65,-46.83,-30.32,-46.17,-52.66,-55.49
2021/08/03 02:22:30+0000,-43.90,-46.11,-30.52,-46.19,-52.64,-55.97
2021/08/03 02:23:22+0000,-42.47,-47.18,-30.60,-45.54,-52.49,-56.15
2021/08/03 02:24:14+0000,-42.13,-46.82,-30.38,-45.54,-52.32,-56.36
2021/08/03 02:25:06+0000,-43.47,-47.18,-29.96,-43.99,-52.51,-56.13
2021/08/03 02:25:58+0000,-43.19,-46.45,-30.57,-46.18,-52.90,-55.92
2021/08/03 02:26:50+0000,-43.19,-47.66,-30.23,-45.62,-52.30,-56.11
2021/08/03 02:27:43+0000,-43.33,-47.49,-30.39,-44.15,-53.13,-55.35
2021/08/03 02:28:35+0000,-41.79,-47.15,-30.37,-46.38,-52.56,-55.75
2021/08/03 02:29:27+0000,-42.73,-45.93,-30.02,-46.47,-52.13,-55.67
2021/08/03 02:30:19+0000,-43.29,-47.67,-30.64,-45.19,-52.58,-55.46
2021/08/03 02:31:19+0000,-42.78,-46.08,-30.44,-46.58,-52.70,-56.05
2021/08/03 02:32:11+0000,-43.03,-47.68,-30.82,-46.73,-52.77,-56.03
2021/08/03 02:33:03+0000,-42.73,-47.22,-30.61,-46.76,-52.43,-56.07
2021/08/03 02:33:55+0000,-43.50,-46.58,-30.62,-46.24,-52.09,-55.95
2021/08/03 02:34:47+0000,-42.35,-45.88,-30.43,-44.55,-53.40,-56.29
2021/08/03 02:35:39+0000,-42.99,-45.71,-30.53,-43.29,-51.95,-55.42
2021/08/03 02:36:31+0000,-41.77,-46.35,-30.47,-45.68,-52.56,-55.74
2021/08/03 02:37:23+0000,-41.87,-47.54,-30.72,-45.80,-53.50,-55.92
2021/08/03 02:38:15+0000,-43.32,-46.06,-30.03,-43.97,-52.38,-56.30
2021/08/03 02:39:07+0000,-43.39,-47.60,-30.30,-44.62,-52.98,-56.38
2021/08/03 02:39:59+0000,-42.10,-46.89,-30.16,-46.28,-52.42,-55.59
2021/08/03 02:40:51+0000,-42.90,-47.28,-30.03,-46.64,-52.86,-55.44
2021/08/03 02:41:52+0000,-42.81,-47.34,-30.99,-45.87,-52.21,-55.61
2021/08/03 02:42:44+0000,-42.67,-47.24,-30.95,-44.36,-52.87,-55.84
2021/08/03 02:43:36+0000,-42.30,-47.02,-30.90,-46.11,-52.50,-56.33
2021/08/03 02:44:28+0000,-43.63,-46.78,-30.46,-45.63,-52.87,-55.70
2021/08/03 02:45:20+0000,-43.91,-46.15,-30.82,-46.26,-53.18,-55.75
2021/08/03 02:46:12+0000,-42.94,-45.83,-31.03,-43.75,-52.45,-56.09
2021/08/03 02:47:04+0000,-42.09,-46.64,-30.19,-47.01,-53.22,-56.20
2021/08/03 02:47:56+0000,-42.42,-47.36,-30.54,-45.99,-52.49,-55.99
2021/08/03 02:48:48+0000,-43.22,-47.01,-30.57,-43.78,-53.06,-55.96
2021/08/03 02:49:40+0000,-42.94,-45.95,-30.95,-43.84,-52.82,-56.14
2021/08/03 02:50:33+0000,-39.97,-45.93,-31.09,-45.26,-52.13,-55.99
2021/08/03 02:51:34+0000,-42.66,-47.70,-30.19,-45.38,-53.33,-56.10
2021/08/03 02:52:26+0000,-42.73,-46.48,-30.75,-46.15,-52.97,-55.98
2021/08/03 02:53:18+0000,-42.93,-45.39,-30.73,-44.30,-52.38,-56.51
2021/08/03 02:54:10+0000,-42.35,-44.98,-29.92,-44.15,-52.96,-55.99
2021/08/03 02:55:02+0000,-42.93,-47.77,-30.67,-45.80,-52.57,-56.32
2021/08/03 02:55:54+0000,-41.24,-45.92,-30.25,-45.49,-52.79,-55.62
2021/08/03 02:56:46+0000,-42.61,-45.97,-30.43,-44.27,-52.93,-55.76
2021/08/03 02:57:38+0000,-43.02,-47.80,-30.46,-44.07,-52.20,-56.04
2021/08/03 02:58:30+0000,-42.31,-46.86,-30.79,-45.31,-52.41,-55.66
2021/08/03 02:59:22+0000,-43.22,-47.99,-30.54,-45.82,-52.50,-55.49
2021/08/03 03:00:15+0000,-41.92,-46.16,-30.72,-43.06,-52.49,-55.41
2021/08/03 03:01:15+0000,-43.04,-45.26,-30.17,-44.18,-52.95,-55.91
2021/08/03 03:02:07+0000,-43.28,-45.84,-30.18,-46.19,-52.88,-55.85
2021/08/03 03:02:59+0000,-41.97,-46.56,-30.43,-43.75,-51.87,-55.72
2021/08/03 03:03:52+0000,-41.13,-47.93,-30.98,-44.00,-52.94,-55.71
2021/08/03 03:04:44+0000,-41.79,-46.89,-30.79,-45.59,-52.63,-55.28
2021/08/03 03:05:36+0000,-40.60,-48.01,-30.26,-46.19,-52.72,-55.33
2021/08/03 03:06:28+0000,-41.03,-47.62,-30.84,-45.16,-52.85,-55.34
2021/08/03 03:07:20+0000,-41.71,-48.06,-30.76,-45.79,-53.04,-56.10
2021/08/03 03:08:12+0000,-40.43,-44.90,-30.63,-45.63,-52.45,-56.07
2021/08/03 03:09:04+0000,-42.27,-46.49,-30.65,-45.73,-52.82,-55.86
2021/08/03 03:09:56+0000,-43.14,-46.25,-30.29,-42.61,-52.32,-55.51
2021/08/03 03:10:48+0000,-42.81,-46.34,-30.97,-46.44,-52.45,-55.68
2021/08/03 03:11:48+0000,-42.42,-45.56,-30.64,-47.06,-52.46,-55.14
2021/08/03 03:12:40+0000,-42.84,-46.31,-30.76,-44.98,-53.01,-56.03
2021/08/03 03:13:32+0000,-42.78,-45.65,-30.37,-45.93,-52.73,-55.92
2021/08/03 03:14:25+0000,-42.33,-46.32,-30.65,-43.23,-52.79,-56.18
2021/08/03 03:15:17+0000,-42.04,-46.85,-30.56,-46.15,-53.07,-55.74
2021/08/03 03:16:09+0000,-42.19,-45.08,-29.87,-45.53,-52.13,-56.11
2021/08/03 03:17:01+0000,-43.34,-48.07,-30.20,-42.79,-52.77,-55.90
2021/08/03 03:17:53+0000,-42.38,-45.82,-30.78,-43.79,-52.08,-55.09
2021/08/03 03:18:45+0000,-42.10,-47.70,-30.44,-41.58,-53.13,-56.45
2021/08/03 03:19:37+0000,-41.93,-50.48,-29.99,-41.97,-52.46,-56.09
2021/08/03 03:20:29+0000,-43.43,-47.33,-30.76,-43.35,-53.01,-55.37
2021/08/03 03:21:29+0000,-43.41,-47.33,-29.95,-42.82,-52.64,-55.69
2021/08/03 03:22:21+0000,-42.94,-50.71,-30.80,-42.18,-53.05,-56.50
2021/08/03 03:23:13+0000,-42.45,-47.54,-30.44,-46.35,-52.47,-56.17
2021/08/03 03:24:05+0000,-41.90,-50.14,-30.22,-46.05,-52.88,-55.93
2021/08/03 03:24:57+0000,-42.95,-48.31,-30.88,-45.30,-52.61,-55.55
2021/08/03 03:25:50+0000,-41.83,-47.65,-30.37,-46.77,-53.05,-56.26
2021/08/03 03:26:42+0000,-42.70,-49.32,-30.60,-45.71,-52.60,-55.72
2021/08/03 03:27:34+0000,-42.25,-46.87,-29.64,-46.53,-53.01,-56.21
2021/08/03 03:28:26+0000,-42.58,-46.52,-30.20,-45.71,-53.21,-55.66
2021/08/03 03:29:18+0000,-41.43,-48.85,-30.77,-46.44,-53.17,-56.06
2021/08/03 03:30:10+0000,-42.82,-49.18,-30.38,-46.25,-52.94,-56.01
2021/08/03 03:31:07+0000,-42.80,-49.02,-30.49,-46.34,-52.79,-55.98
2021/08/03 03:32:00+0000,-42.71,-45.75,-30.31,-45.97,-52.66,-56.01
2021/08/03 03:32:52+0000,-41.99,-50.41,-30.28,-46.04,-52.97,-55.60
2021/08/03 03:33:44+0000,-42.37,-48.41,-29.89,-46.58,-52.75,-56.07
2021/08/03 03:34:36+0000,-42.10,-48.86,-30.01,-44.99,-52.37,-55.52
2021/08/03 03:35:28+0000,-41.98,-44.96,-30.09,-45.15,-52.50,-55.59
2021/08/03 03:36:20+0000,-42.00,-47.43,-30.59,-46.17,-52.19,-56.24
2021/08/03 03:37:12+0000,-42.07,-47.01,-30.19,-45.86,-53.03,-56.20
2021/08/03 03:38:04+0000,-41.51,-44.33,-29.78,-46.49,-52.33,-55.81
2021/08/03 03:38:56+0000,-41.83,-44.63,-30.57,-45.50,-52.69,-55.29
2021/08/03 03:39:48+0000,-41.52,-46.50,-29.70,-46.95,-52.39,-55.59
2021/08/03 03:40:40+0000,-42.53,-47.57,-29.53,-46.08,-52.13,-55.33
2021/08/03 03:41:47+0000,-40.25,-46.92,-30.27,-46.17,-52.29,-55.56
2021/08/03 03:42:39+0000,-42.62,-48.32,-30.11,-46.07,-52.31,-55.91
2021/08/03 03:43:31+0000,-42.77,-42.06,-29.77,-46.10,-52.24,-55.81
2021/08/03 03:44:23+0000,-41.85,-45.29,-30.52,-45.95,-52.78,-55.59
2021/08/03 03:45:15+0000,-42.32,-48.02,-30.12,-45.86,-52.20,-55.64
2021/08/03 03:46:07+0000,-41.49,-48.10,-30.71,-46.27,-52.89,-56.17
2021/08/03 03:46:59+0000,-42.75,-45.10,-30.61,-46.20,-52.21,-55.84
2021/08/03 03:47:51+0000,-42.66,-48.24,-30.67,-46.87,-52.23,-55.86
2021/08/03 03:48:43+0000,-41.04,-46.90,-30.83,-45.97,-51.51,-55.50
2021/08/03 03:49:35+0000,-41.36,-45.49,-29.82,-46.91,-52.90,-55.60
2021/08/03 03:50:27+0000,-39.48,-46.48,-30.89,-46.29,-52.28,-55.71
2021/08/03 03:51:29+0000,-42.51,-44.84,-30.26,-45.91,-52.89,-55.64
2021/08/03 03:52:21+0000,-41.34,-49.61,-29.95,-44.73,-52.53,-55.67
2021/08/03 03:53:13+0000,-41.39,-47.12,-29.92,-46.93,-52.26,-55.71
2021/08/03 03:54:05+0000,-41.94,-46.22,-30.52,-46.58,-51.69,-56.14
2021/08/03 03:54:57+0000,-41.48,-46.38,-30.29,-46.10,-51.94,-55.69
2021/08/03 03:55:49+0000,-41.72,-46.99,-30.32,-46.34,-52.91,-55.26
2021/08/03 03:56:41+0000,-41.49,-48.24,-30.35,-47.41,-52.35,-55.58
2021/08/03 03:57:33+0000,-41.31,-46.10,-30.03,-46.44,-52.81,-56.16
2021/08/03 03:58:25+0000,-41.92,-46.82,-29.59,-45.50,-52.35,-55.70
2021/08/03 03:59:17+0000,-41.66,-48.25,-30.51,-46.10,-52.23,-55.51
2021/08/03 04:00:09+0000,-41.23,-45.95,-30.05,-46.41,-52.71,-55.69
2021/08/03 04:01:10+0000,-42.49,-46.63,-29.77,-46.68,-52.49,-55.75
2021/08/03 04:02:02+0000,-43.26,-45.54,-30.05,-45.63,-52.48,-56.02
2021/08/03 04:02:54+0000,-42.13,-45.53,-30.11,-45.21,-52.59,-55.57
2021/08/03 04:03:46+0000,-41.37,-46.18,-29.88,-44.59,-52.03,-55.67
2021/08/03 04:04:38+0000,-41.00,-46.00,-30.20,-46.56,-52.48,-55.14
2021/08/03 04:05:30+0000,-41.00,-44.84,-29.97,-45.66,-52.61,-55.48
2021/08/03 04:06:22+0000,-42.04,-46.32,-29.78,-45.94,-52.61,-55.50
2021/08/03 04:07:14+0000,-40.51,-45.91,-30.01,-46.04,-52.97,-55.71
2021/08/03 04:08:06+0000,-42.20,-47.07,-30.37,-45.89,-52.33,-55.86
2021/08/03 04:08:59+0000,-43.49,-44.64,-29.88,-46.78,-52.58,-55.95
2021/08/03 04:09:51+0000,-40.18,-47.40,-30.29,-45.81,-52.32,-56.03
2021/08/03 04:10:43+0000,-39.98,-46.50,-30.34,-45.53,-52.40,-56.01
2021/08/03 04:11:44+0000,-42.76,-47.05,-30.76,-46.26,-52.05,-55.95
2021/08/03 04:12:36+0000,-41.47,-48.07,-30.62,-45.90,-52.81,-55.93
2021/08/03 04:13:28+0000,-42.75,-44.94,-30.86,-45.96,-52.77,-55.79
2021/08/03 04:14:20+0000,-43.12,-48.05,-30.30,-47.10,-51.89,-55.30
2021/08/03 04:15:12+0000,-42.23,-46.96,-30.13,-46.61,-52.08,-55.37
2021/08/03 04:16:04+0000,-41.00,-44.39,-30.29,-47.19,-52.77,-55.62
2021/08/03 04:16:56+0000,-42.52,-43.55,-30.32,-44.69,-52.87,-56.05
2021/08/03 04:17:48+0000,-41.92,-45.12,-30.18,-46.31,-52.35,-55.52
2021/08/03 04:18:40+0000,-43.00,-45.68,-30.32,-46.53,-52.40,-55.48
2021/08/03 04:19:32+0000,-42.36,-45.90,-30.68,-44.64,-52.71,-55.52
2021/08/03 04:20:24+0000,-42.53,-45.35,-30.28,-45.52,-52.30,-54.98
2021/08/03 04:21:25+0000,-43.12,-45.38,-30.33,-44.11,-52.27,-54.92
2021/08/03 04:22:17+0000,-43.29,-46.33,-29.98,-46.64,-52.37,-55.58
2021/08/03 04:23:09+0000,-40.41,-46.30,-30.38,-44.69,-52.28,-55.49
2021/08/03 04:24:01+0000,-40.95,-45.38,-30.32,-45.80,-52.06,-55.28
2021/08/03 04:24:53+0000,-42.21,-44.80,-30.08,-45.93,-52.26,-55.86
2021/08/03 04:25:45+0000,-43.75,-46.10,-30.05,-47.12,-52.49,-55.75
2021/08/03 04:26:37+0000,-42.78,-46.96,-30.53,-47.09,-51.82,-55.98
2021/08/03 04:27:29+0000,-42.36,-46.38,-30.71,-45.82,-51.79,-54.87
2021/08/03 04:28:22+0000,-41.77,-48.00,-30.31,-45.96,-52.35,-55.48
2021/08/03 04:29:14+0000,-42.36,-45.59,-29.89,-47.61,-51.88,-55.05
2021/08/03 04:30:06+0000,-41.20,-48.35,-30.09,-46.96,-52.08,-55.70
2021/08/03 04:31:06+0000,-42.69,-47.95,-30.22,-46.55,-52.02,-55.47
2021/08/03 04:31:58+0000,-40.39,-44.66,-29.93,-46.56,-52.77,-55.48
2021/08/03 04:32:50+0000,-41.32,-46.74,-30.02,-47.92,-51.66,-55.32
2021/08/03 04:33:42+0000,-42.76,-46.17,-30.25,-45.94,-51.93,-55.65
2021/08/03 04:34:34+0000,-40.61,-46.20,-29.80,-47.60,-52.08,-56.27
2021/08/03 04:35:26+0000,-40.98,-45.65,-30.50,-46.90,-52.32,-55.52
2021/08/03 04:36:18+0000,-36.89,-46.32,-30.79,-46.06,-51.74,-55.86
2021/08/03 04:37:10+0000,-41.79,-46.13,-30.01,-47.19,-51.85,-55.81
2021/08/03 04:38:02+0000,-41.59,-45.22,-30.48,-46.55,-52.04,-55.73
2021/08/03 04:38:54+0000,-42.15,-45.63,-30.41,-47.54,-52.40,-56.16
2021/08/03 04:39:46+0000,-42.07,-46.27,-29.96,-46.90,-51.88,-55.38
2021/08/03 04:40:38+0000,-42.83,-46.28,-30.16,-47.50,-52.07,-55.51
2021/08/03 04:41:38+0000,-41.86,-46.20,-30.06,-47.79,-51.58,-55.88
2021/08/03 04:42:30+0000,-43.84,-45.28,-30.27,-46.46,-52.50,-55.65
2021/08/03 04:43:23+0000,-41.95,-47.18,-30.68,-47.23,-51.77,-55.65
2021/08/03 04:44:15+0000,-42.64,-47.12,-30.68,-47.95,-52.01,-55.22